Location: Winthrop
(48.4780°N, 120.1850°W)
Time: 01:28:44
(UTC-07:00)

XW-2A - Pass Details

Date: 20 May 2022
Orbit: 398 x 413 km, 97.2° (Epoch: 27 June)

Event Time Altitude Azimuth Distance (km) Brightness Sun altitude
Exits shadow 21:45:05 10° 163° (SSE) 1,502 ? -9.1°
Maximum altitude 21:48:18 81° 76° (ENE) 433 ? -9.4°
Drops below altitude 10° 21:51:33 10° 349° (N) 1,517 ? -9.8°
Sets 21:53:33 0° 349° (NNW) 2,386 ? -10.0°
